This is the latest recevied weather packets stored in our database for station/object W7JFO-3. If no packets are shown the sender has not sent any weather packets the latest 10 day(s).
| Time | Temp. | Humidity | Pressure | Rain* | Wind** | Luminosity | Snow |
|---|---|---|---|---|---|---|---|
| 1777065429 | 2.22° C | 50% | 1018.8 hPa | 0 mm | - | 213 W/m² | - |
| 1777064529 | 2.78° C | 52% | 1018.4 hPa | 0 mm | - | 369 W/m² | - |
| 1777063629 | 2.22° C | 55% | 1018.4 hPa | 0 mm | - | 297 W/m² | - |
| 1777062730 | 1.67° C | 53% | 1018.4 hPa | 0 mm | - | 285 W/m² | - |
| 1777061830 | 1.67° C | 47% | 1018.4 hPa | 0 mm | - | 338 W/m² | - |
| 1777060930 | 1.67° C | 57% | 1018.6 hPa | 0 mm | - | 478 W/m² | - |
| 1777060030 | 1.11° C | 67% | 1018.5 hPa | 0 mm | - | 304 W/m² | - |
| 1777059130 | 1.11° C | 63% | 1018.8 hPa | 0 mm | - | 482 W/m² | - |
| 1777058230 | 0° C | 74% | 1019 hPa | 0 mm | - | 461 W/m² | - |
| 1777057330 | 0.56° C | 68% | 1018.8 hPa | 0 mm | - | 290 W/m² | - |
| 1777056430 | 1.11° C | 71% | 1018.7 hPa | 0 mm | - | 689 W/m² | - |
| 1777055530 | 0.56° C | 75% | 1018.9 hPa | 0 mm | - | 826 W/m² | - |
| 1777054630 | 0.56° C | 79% | 1019.1 hPa | 0.25 mm | - | 807 W/m² | - |
| 1777053730 | 1.11° C | 77% | 1019 hPa | 0.25 mm | - | 751 W/m² | - |
| 1777052830 | 0.56° C | 80% | 1019.2 hPa | 0.51 mm | - | 724 W/m² | - |
| 1777051930 | 0.56° C | 85% | 1019.3 hPa | 0.51 mm | - | 759 W/m² | - |
| 1777051030 | 0° C | 84% | 1019.2 hPa | 0.25 mm | - | 768 W/m² | - |
| 1777050130 | -0.56° C | 88% | 1019.1 hPa | 0.25 mm | - | 594 W/m² | - |
| 1777049230 | -1.11° C | 89% | 1019.2 hPa | 0 mm | - | 454 W/m² | - |
| 1777048330 | -1.67° C | 93% | 1019.3 hPa | 0 mm | - | 366 W/m² | - |
| 1777047430 | -2.22° C | 93% | 1019.7 hPa | 0 mm | - | 397 W/m² | - |
| 1777046530 | -2.22° C | 94% | 1019.5 hPa | 0 mm | - | 199 W/m² | - |
| 1777045630 | -2.78° C | 95% | 1019.6 hPa | 0 mm | - | 251 W/m² | - |
| 1777044730 | -2.78° C | 96% | 1019.7 hPa | 0 mm | - | 153 W/m² | - |
| 1777043830 | -2.78° C | 96% | 1020.1 hPa | 0 mm | - | 114 W/m² | - |
* Rain latest hour (hover to see other rain measurements)
** Current wind speed in m/s (hover to see current wind gust speed)